TimeEST,TemperatureF,Dew PointF,Humidity,Sea Level PressureIn,VisibilityMPH,Wind Direction,Wind SpeedMPH,Gust SpeedMPH,PrecipitationIn,Events,Conditions,WindDirDegrees,DateUTC
12:15 AM,30.2,26.6,86,30.25,10.0,WNW,6.9,-,N/A,,Overcast,300,2013-03-07 05:15:00
12:35 AM,30.2,26.6,86,30.25,10.0,NW,8.1,-,N/A,,Overcast,310,2013-03-07 05:35:00
12:55 AM,30.2,26.6,86,30.25,10.0,NW,9.2,-,N/A,,Overcast,310,2013-03-07 05:55:00
1:15 AM,30.2,26.6,86,30.25,10.0,NNW,4.6,-,N/A,,Overcast,330,2013-03-07 06:15:00
1:35 AM,30.2,26.6,86,30.25,10.0,NW,5.8,-,N/A,,Overcast,320,2013-03-07 06:35:00
1:55 AM,30.2,26.6,86,30.26,10.0,NW,5.8,-,N/A,,Overcast,310,2013-03-07 06:55:00
2:15 AM,30.2,26.6,86,30.26,10.0,WNW,3.5,-,N/A,,Overcast,300,2013-03-07 07:15:00
2:35 AM,30.2,26.6,86,30.26,10.0,WNW,4.6,-,N/A,,Overcast,290,2013-03-07 07:35:00
2:55 AM,30.2,26.6,86,30.26,10.0,WNW,4.6,-,N/A,,Overcast,300,2013-03-07 07:55:00
3:15 AM,30.2,26.6,86,30.26,10.0,WNW,4.6,-,N/A,,Overcast,300,2013-03-07 08:15:00
3:35 AM,30.2,26.6,86,30.27,10.0,NW,5.8,-,N/A,,Overcast,310,2013-03-07 08:35:00
3:55 AM,30.2,26.6,86,30.27,10.0,West,5.8,-,N/A,,Overcast,280,2013-03-07 08:55:00
4:15 AM,30.2,26.6,86,30.27,10.0,WNW,5.8,-,N/A,,Overcast,290,2013-03-07 09:15:00
4:35 AM,30.2,26.6,86,30.27,10.0,WNW,3.5,-,N/A,,Overcast,300,2013-03-07 09:35:00
4:55 AM,30.2,26.6,86,30.28,10.0,Calm,Calm,-,N/A,,Overcast,0,2013-03-07 09:55:00
5:15 AM,30.2,26.6,86,30.28,10.0,West,3.5,-,N/A,,Overcast,280,2013-03-07 10:15:00
5:35 AM,30.2,26.6,86,30.29,10.0,Calm,Calm,-,N/A,,Overcast,0,2013-03-07 10:35:00
5:55 AM,30.2,26.6,86,30.29,10.0,WNW,3.5,-,N/A,,Overcast,290,2013-03-07 10:55:00
6:15 AM,30.2,26.6,86,30.30,10.0,West,4.6,-,N/A,,Overcast,280,2013-03-07 11:15:00
6:35 AM,30.2,26.6,86,30.31,10.0,WNW,4.6,-,N/A,,Overcast,300,2013-03-07 11:35:00
6:55 AM,30.2,26.6,86,30.32,10.0,WNW,4.6,-,N/A,,Overcast,290,2013-03-07 11:55:00
7:15 AM,30.2,26.6,86,30.32,10.0,NW,3.5,-,N/A,,Overcast,320,2013-03-07 12:15:00
7:35 AM,30.2,26.6,86,30.32,10.0,WNW,3.5,-,N/A,,Overcast,300,2013-03-07 12:35:00
7:55 AM,30.2,26.6,86,30.33,10.0,WNW,3.5,-,N/A,,Overcast,290,2013-03-07 12:55:00
8:15 AM,30.2,26.6,86,30.33,10.0,WNW,3.5,-,N/A,,Overcast,300,2013-03-07 13:15:00
8:35 AM,30.2,26.6,86,30.34,7.0,Calm,Calm,-,N/A,,Overcast,0,2013-03-07 13:35:00
8:55 AM,30.2,26.6,86,30.34,7.0,Calm,Calm,-,N/A,,Overcast,0,2013-03-07 13:55:00
9:15 AM,30.2,26.6,86,30.34,7.0,West,3.5,-,N/A,,Overcast,280,2013-03-07 14:15:00
9:35 AM,30.2,28.4,93,30.35,4.0,WNW,3.5,-,N/A,,Overcast,290,2013-03-07 14:35:00
9:55 AM,30.2,28.4,93,30.35,4.0,WNW,3.5,-,N/A,,Overcast,300,2013-03-07 14:55:00
10:15 AM,30.2,28.4,93,30.35,5.0,Calm,Calm,-,N/A,,Overcast,0,2013-03-07 15:15:00
10:35 AM,30.2,28.4,93,30.35,5.0,WNW,3.5,-,N/A,,Overcast,300,2013-03-07 15:35:00
11:15 AM,30.2,28.4,93,30.35,5.0,WNW,3.5,-,N/A,,Overcast,300,2013-03-07 16:15:00
11:35 AM,32.0,28.4,87,30.35,10.0,Calm,Calm,-,N/A,,Overcast,0,2013-03-07 16:35:00
11:55 AM,32.0,28.4,87,30.36,10.0,WNW,3.5,-,N/A,,Overcast,300,2013-03-07 16:55:00
12:15 PM,32.0,28.4,87,30.36,10.0,WNW,4.6,-,N/A,,Overcast,300,2013-03-07 17:15:00
12:35 PM,32.0,28.4,87,30.35,10.0,NW,4.6,-,N/A,,Overcast,320,2013-03-07 17:35:00
12:55 PM,32.0,26.6,80,30.35,10.0,NW,5.8,-,N/A,,Overcast,310,2013-03-07 17:55:00
1:15 PM,32.0,26.6,80,30.34,10.0,NW,4.6,-,N/A,,Overcast,310,2013-03-07 18:15:00
1:35 PM,32.0,26.6,80,30.34,10.0,NNW,5.8,-,N/A,,Overcast,330,2013-03-07 18:35:00
2:15 PM,32.0,26.6,80,30.33,10.0,Calm,Calm,-,N/A,,Overcast,0,2013-03-07 19:15:00
2:35 PM,32.0,26.6,80,30.33,10.0,Calm,Calm,-,N/A,,Overcast,0,2013-03-07 19:35:00
2:55 PM,32.0,26.6,80,30.33,10.0,Calm,Calm,-,N/A,,Overcast,0,2013-03-07 19:55:00
3:15 PM,32.0,26.6,80,30.33,10.0,West,3.5,-,N/A,,Overcast,280,2013-03-07 20:15:00
3:35 PM,32.0,26.6,80,30.34,10.0,NNW,3.5,-,N/A,,Overcast,330,2013-03-07 20:35:00
3:55 PM,33.8,26.6,75,30.34,10.0,NNW,3.5,-,N/A,,Overcast,330,2013-03-07 20:55:00
4:15 PM,33.8,26.6,75,30.33,10.0,NNW,3.5,-,N/A,,Overcast,330,2013-03-07 21:15:00
4:35 PM,33.8,26.6,75,30.33,10.0,WNW,3.5,-,N/A,,Overcast,300,2013-03-07 21:35:00
4:55 PM,33.8,26.6,75,30.33,10.0,Calm,Calm,-,N/A,,Overcast,0,2013-03-07 21:55:00
5:15 PM,33.8,26.6,75,30.33,10.0,Calm,Calm,-,N/A,,Overcast,0,2013-03-07 22:15:00
5:35 PM,33.8,26.6,75,30.34,10.0,NNW,3.5,-,N/A,,Overcast,340,2013-03-07 22:35:00
5:55 PM,33.8,26.6,75,30.35,10.0,Calm,Calm,-,N/A,,Overcast,0,2013-03-07 22:55:00
6:15 PM,32.0,26.6,80,30.35,10.0,North,3.5,-,N/A,,Overcast,350,2013-03-07 23:15:00
6:35 PM,32.0,26.6,80,30.35,10.0,Calm,Calm,-,N/A,,Overcast,0,2013-03-07 23:35:00
6:55 PM,32.0,26.6,80,30.35,10.0,NNW,3.5,-,N/A,,Overcast,340,2013-03-07 23:55:00
8:55 PM,32.0,24.8,75,30.36,10.0,Calm,Calm,-,N/A,,Overcast,0,2013-03-08 01:55:00
9:15 PM,32.0,24.8,75,30.37,10.0,Calm,Calm,-,N/A,,Overcast,0,2013-03-08 02:15:00
9:35 PM,32.0,24.8,75,30.37,10.0,Calm,Calm,-,N/A,,Overcast,0,2013-03-08 02:35:00
9:55 PM,32.0,24.8,75,30.36,10.0,Calm,Calm,-,N/A,,Overcast,0,2013-03-08 02:55:00
10:15 PM,32.0,24.8,75,30.36,10.0,Calm,Calm,-,N/A,,Overcast,0,2013-03-08 03:15:00
10:35 PM,32.0,24.8,75,30.36,10.0,Calm,Calm,-,N/A,,Overcast,0,2013-03-08 03:35:00
10:55 PM,32.0,24.8,75,30.36,10.0,Calm,Calm,-,N/A,,Overcast,0,2013-03-08 03:55:00
11:15 PM,32.0,24.8,75,30.36,10.0,NNE,5.8,-,N/A,,Overcast,30,2013-03-08 04:15:00
11:35 PM,32.0,26.6,80,30.36,10.0,NE,3.5,-,N/A,,Overcast,50,2013-03-08 04:35:00
11:55 PM,32.0,24.8,75,30.36,10.0,NE,3.5,-,N/A,,Overcast,40,2013-03-08 04:55:00